Stations météo

Publicité
Laval-Etronnier, France (7134): Température de l'air & dewpoint: 15.06.2018 18:00:00 - 21.06.2018 18:00:00 (CEST)Laval-Etronnier, France (7134): Température de l'air 5cm: 15.06.2018 18:00:00 - 21.06.2018 18:00:00 (CEST)Laval-Etronnier, France (7134): Température de l'air -20cm & Température de l'air -100cm: 15.06.2018 18:00:00 - 21.06.2018 18:00:00 (CEST)Laval-Etronnier, France (7134): Vitesse du vent & gusts: 15.06.2018 18:00:00 - 21.06.2018 18:00:00 (CEST)Laval-Etronnier, France (7134): Direction du vent: 15.06.2018 18:00:00 - 21.06.2018 18:00:00 (CEST)Laval-Etronnier, France (7134): reduced air pressure: 15.06.2018 18:00:00 - 21.06.2018 18:00:00 (CEST)Laval-Etronnier, France (7134): visibility: 15.06.2018 18:00:00 - 21.06.2018 18:00:00 (CEST)Laval-Etronnier, France (7134): Ensoleillement: 15.06.2018 18:00:00 - 21.06.2018 18:00:00 (CEST)Laval-Etronnier, France (7134): Quantités de précipitations: 15.06.2018 18:00:00 - 21.06.2018 18:00:00 (CEST)
Date & Time tt [°C] td [°C] tt 5cm [°C] tt -20cm [°C] tt -100cm [°C] ff [km/h] ff [knt] fx [km/h] fx [knt] dd ppp [hPa] vv [km] sd [min] rr [mm]
21.06.2018 18:00:00 - - - - - - - - - - - - - -
21.06.2018 17:00:00 20,8 9,4 25,2 24,3 17,8 24 13 38 21 NNE 1024,3 20 60 0,0
21.06.2018 16:00:00 20,9 9,8 24,2 23,8 17,8 21 11 37 20 N 1024,0 20 60 0,0
21.06.2018 15:00:00 19,9 9,7 24,4 23,1 17,8 21 11 39 21 N 1024,0 20 60 0,0
21.06.2018 14:00:00 20,1 9,3 24,7 22,2 17,8 24 13 45 24 N 1023,6 20 60 0,0
21.06.2018 13:00:00 19,8 10,5 21,1 21,3 17,8 23 12 40 22 N 1023,4 20 52 0,0
21.06.2018 12:00:00 19,4 11,2 20,1 20,8 17,7 23 12 35 19 NNE 1023,5 20 44 0,0
21.06.2018 11:00:00 19,1 11,4 18,7 20,5 17,7 23 12 36 19 NNE 1023,1 20 51 0,0
21.06.2018 10:00:00 17,4 12,1 17,5 20,4 17,7 22 12 32 18 N 1023,1 20 13 0,0
21.06.2018 09:00:00 16,7 13,4 16,7 20,5 17,7 18 10 31 17 N 1022,8 20 0 0,0
21.06.2018 08:00:00 15,9 14,1 15,1 20,6 17,7 16 9 33 18 N 1022,4 18 0 0,0
21.06.2018 07:00:00 15,1 14,0 14,7 20,8 17,7 19 10 35 19 NNW 1021,9 15 0 0,0
21.06.2018 06:00:00 14,6 13,6 14,4 21,1 17,7 20 11 38 20 NNW 1021,6 18 0 0,0
21.06.2018 05:00:00 14,8 14,0 14,5 21,4 17,7 17 9 33 18 NNW 1021,4 20 0 0,0
21.06.2018 04:00:00 14,7 13,7 14,1 21,8 17,7 13 7 26 14 NNW 1021,5 20 0 0,0
21.06.2018 03:00:00 15,1 13,8 14,6 22,2 17,7 14 7 39 21 NNW 1021,5 20 0 0,0
21.06.2018 02:00:00 17,7 14,6 17,1 22,6 17,6 21 12 31 17 NNW 1021,0 20 0 0,0
21.06.2018 01:00:00 18,8 15,8 18,1 23,1 17,6 14 8 24 13 NNW 1020,9 20 0 0,0
21.06.2018 00:00:00 20,0 16,2 19,2 23,6 17,6 16 8 24 13 N 1020,6 20 0 0,0
20.06.2018 23:00:00 21,4 17,2 20,6 24,1 17,6 18 10 29 16 NNW 1020,3 20 0 0,0
20.06.2018 22:00:00 23,4 18,3 22,4 24,7 17,6 16 9 27 14 NNW 1019,5 20 38 0,0
20.06.2018 21:00:00 26,4 15,1 27,6 25,2 17,6 11 6 18 10 NNW 1019,1 20 60 0,0
20.06.2018 20:00:00 28,2 15,5 32,9 25,6 17,6 7 4 15 8 NNE 1019,2 19 60 0,0
20.06.2018 19:00:00 28,4 15,3 34,6 25,8 17,6 8 4 17 9 N 1019,2 20 60 0,0
20.06.2018 18:00:00 28,6 13,7 35,6 25,7 17,6 8 4 16 9 E 1019,4 20 60 0,0
20.06.2018 17:00:00 28,8 15,0 34,8 25,1 17,6 10 6 17 9 ENE 1019,8 20 60 0,0
20.06.2018 16:00:00 28,8 15,0 33,6 24,3 17,6 4 2 18 10 S 1020,1 20 60 0,0
20.06.2018 15:00:00 27,1 15,5 33,0 23,1 17,6 12 7 22 12 N 1020,7 20 60 0,0
20.06.2018 14:00:00 26,6 16,2 32,3 21,8 17,6 9 5 24 13 ENE 1021,1 17 60 0,0
20.06.2018 13:00:00 26,0 16,3 31,5 20,6 17,6 10 6 17 9 NE 1021,5 20 60 0,0
20.06.2018 12:00:00 24,6 16,8 29,1 19,7 17,6 9 5 19 10 E 1021,8 12 60 0,0
20.06.2018 11:00:00 23,3 16,8 25,5 19,2 17,6 9 5 19 10 ENE 1021,9 19 60 0,0
20.06.2018 10:00:00 21,6 17,2 22,0 18,8 17,6 8 4 14 7 ENE 1022,3 20 60 0,0
20.06.2018 09:00:00 19,0 16,8 16,6 18,7 17,6 6 4 12 7 NE 1022,2 20 60 0,0
20.06.2018 08:00:00 15,9 15,7 14,2 18,7 17,5 6 3 11 6 N 1022,4 2,4 60 0,0
20.06.2018 07:00:00 14,1 13,9 13,0 18,8 17,6 8 4 10 5 N 1022,4 0,1 21 0,0
20.06.2018 06:00:00 14,2 14,0 13,2 19,0 17,6 8 4 11 6 N 1022,5 2,8 0 0,0
20.06.2018 05:00:00 14,3 14,0 13,2 19,3 17,6 9 5 12 6 N 1022,6 5 0 0,0
20.06.2018 04:00:00 14,8 14,5 13,1 19,5 17,6 8 4 12 7 N 1022,8 7 0 0,0
20.06.2018 03:00:00 15,3 14,8 13,6 19,8 17,6 10 5 11 6 N 1022,9 14 0 0,0
20.06.2018 02:00:00 15,9 14,9 13,4 20,1 17,6 6 4 8 5 N 1023,1 19 0 0,0
20.06.2018 01:00:00 16,4 15,1 13,0 20,5 17,6 8 4 10 5 N 1023,4 20 0 0,0
20.06.2018 00:00:00 17,7 15,5 14,7 20,8 17,6 6 4 8 5 N 1023,7 20 0 0,0
19.06.2018 23:00:00 19,0 15,9 14,5 21,2 17,6 6 3 9 5 NNE 1023,7 20 0 0,0
19.06.2018 22:00:00 20,2 15,8 17,7 21,5 17,6 6 3 12 7 NNE 1023,5 20 37 0,0
19.06.2018 21:00:00 22,5 16,3 25,5 21,7 17,5 6 4 12 7 NNE 1023,7 20 60 0,0
19.06.2018 20:00:00 23,2 16,5 28,3 21,8 17,6 4 2 14 8 ENE 1023,9 20 60 0,0
19.06.2018 19:00:00 22,7 16,3 25,1 21,7 17,6 4 2 13 7 N 1024,3 20 38 0,0
19.06.2018 18:00:00 21,8 15,9 25,0 21,4 17,5 6 4 17 9 ENE 1024,9 20 2 0,0
19.06.2018 17:00:00 21,7 15,5 25,1 20,9 17,5 5 3 19 10 NE 1025,4 16 13 0,0
19.06.2018 16:00:00 20,8 15,3 23,6 20,6 17,5 4 2 13 7 N 1026,0 20 0 0,0
19.06.2018 15:00:00 19,6 15,3 22,2 20,3 17,5 5 3 14 8 E 1026,3 20 0 0,0
19.06.2018 14:00:00 19,3 15,4 21,3 20,1 17,5 4 2 14 7 ENE 1026,5 20 0 0,0
19.06.2018 13:00:00 18,4 15,1 20,7 19,8 17,5 4 2 12 6 ENE 1026,7 20 0 0,0
19.06.2018 12:00:00 17,9 15,0 19,8 19,6 17,5 5 3 10 6 NNE 1026,8 18 0 0,0
19.06.2018 11:00:00 17,4 14,9 18,6 19,4 17,5 5 3 16 9 N 1026,9 20 0 0,0
19.06.2018 10:00:00 16,8 14,8 17,4 19,3 17,5 7 4 12 6 NNE 1027,1 20 0 0,0
19.06.2018 09:00:00 16,5 14,7 17,1 19,2 17,5 6 4 13 7 NNE 1027,0 12 0 0,0
19.06.2018 08:00:00 16,4 14,8 16,5 19,3 17,5 4 2 16 8 N 1026,8 19 0 0,0
19.06.2018 07:00:00 16,3 15,0 16,1 19,3 17,5 9 5 16 8 N 1026,4 19 0 0,0
19.06.2018 06:00:00 16,0 15,2 15,7 19,4 17,5 4 2 15 8 NNE 1026,4 15 0 0,0
19.06.2018 05:00:00 15,6 15,1 15,2 19,6 17,5 7 4 20 11 NNW 1026,1 7 0 0,0
19.06.2018 04:00:00 15,1 14,6 13,4 19,8 17,5 12 6 22 12 N 1025,9 7 0 0,0
19.06.2018 03:00:00 14,6 13,5 13,3 20,1 17,5 8 5 12 7 N 1025,8 17 0 0,0
19.06.2018 02:00:00 15,2 13,9 11,7 20,5 17,5 7 4 11 6 N 1025,7 18 0 0,0
19.06.2018 01:00:00 16,4 14,2 12,6 20,8 17,5 5 3 11 6 N 1025,5 20 0 0,0
19.06.2018 00:00:00 17,1 14,6 14,1 21,3 17,5 11 6 14 8 N 1025,8 20 0 0,0
18.06.2018 23:00:00 18,4 14,1 13,9 21,7 17,5 4 2 7 4 W 1025,6 20 0 0,0
18.06.2018 22:00:00 19,8 14,4 17,6 22,1 17,5 5 3 18 10 WNW 1025,0 20 37 0,0
18.06.2018 21:00:00 21,4 14,3 22,7 22,5 17,5 11 6 22 12 NW 1024,6 20 60 0,0
18.06.2018 20:00:00 22,6 14,2 25,7 22,7 17,5 11 6 22 12 WNW 1024,4 20 60 0,0
18.06.2018 19:00:00 22,4 13,7 26,4 22,7 17,5 10 6 23 13 WNW 1024,3 20 60 0,0
18.06.2018 18:00:00 22,3 13,4 26,1 22,4 17,5 10 5 20 11 W 1024,5 20 58 0,0
18.06.2018 17:00:00 21,4 12,8 22,3 21,8 17,5 9 5 21 11 WNW 1024,5 20 40 0,0
18.06.2018 16:00:00 20,9 14,1 21,9 21,1 17,5 8 4 21 12 W 1024,8 20 30 0,0
18.06.2018 15:00:00 20,0 14,1 20,2 20,6 17,5 14 8 23 12 WNW 1024,9 20 8 0,0
18.06.2018 14:00:00 19,4 14,2 21,9 20,1 17,5 11 6 23 13 WNW 1024,8 20 17 0,0
18.06.2018 13:00:00 18,7 14,8 19,5 19,6 17,5 12 6 20 11 NW 1024,8 20 6 0,0
18.06.2018 12:00:00 17,2 14,3 18,1 19,3 17,5 12 6 20 11 NW 1024,5 20 0 0,0
18.06.2018 11:00:00 16,4 14,6 17,2 19,1 17,5 14 7 24 13 NNW 1024,0 20 0 0,0
18.06.2018 10:00:00 17,9 15,0 18,2 18,9 17,5 6 4 13 7 W 1023,3 20 5 0,0
18.06.2018 09:00:00 17,1 16,0 16,5 18,8 17,5 4 2 13 7 W 1023,0 19 0 0,0
18.06.2018 08:00:00 16,3 15,7 15,9 18,8 17,5 8 5 16 8 W 1022,9 16 0 0,0
18.06.2018 07:00:00 16,0 15,5 15,8 18,9 17,5 9 5 15 8 W 1022,5 14 0 0,0
18.06.2018 06:00:00 16,0 15,5 15,7 19,0 17,5 8 4 16 9 WSW 1022,1 4,9 0 0,0
18.06.2018 05:00:00 16,0 15,5 15,7 19,1 17,5 10 6 20 11 WSW 1021,9 14 0 0,0
18.06.2018 04:00:00 15,9 15,6 15,7 19,2 17,4 10 5 18 10 WSW 1021,9 4,7 0 0,0
18.06.2018 03:00:00 15,7 15,4 15,4 19,3 17,4 9 5 17 9 SSW 1021,8 2,6 0 0,2
18.06.2018 02:00:00 15,4 15,1 15,1 19,4 17,4 10 6 18 10 SSW 1022,2 3,1 0 0,4
18.06.2018 01:00:00 15,3 14,7 15,1 19,6 17,4 12 7 23 12 SSW 1022,2 3,1 0 0,0
18.06.2018 00:00:00 15,5 14,2 15,1 19,9 17,4 12 6 27 14 SW 1022,5 6 0 0,0
17.06.2018 23:00:00 16,2 13,5 16,1 20,1 17,4 13 7 21 12 SW 1022,3 20 0 0,0
17.06.2018 22:00:00 16,7 13,2 16,5 20,4 17,5 13 7 35 19 SW 1022,3 20 0 0,0
17.06.2018 21:00:00 17,3 12,8 17,4 20,7 17,4 18 10 31 17 SW 1021,7 20 0 0,0
17.06.2018 20:00:00 17,7 12,2 18,2 21,0 17,4 16 9 35 19 WSW 1021,6 20 0 0,0
17.06.2018 19:00:00 18,2 12,2 18,9 21,2 17,4 18 10 39 21 WSW 1021,4 20 1 0,0
17.06.2018 18:00:00 19,4 11,7 20,2 21,3 17,4 19 11 35 19 WSW 1021,3 20 0 0,0
17.06.2018 17:00:00 19,9 11,4 21,5 21,2 17,4 17 9 33 18 WSW 1021,3 20 10 0,0
17.06.2018 16:00:00 19,7 10,9 21,8 20,9 17,4 19 11 32 17 WSW 1021,4 20 23 0,0
17.06.2018 15:00:00 19,7 10,7 21,4 20,3 17,4 15 8 34 18 WSW 1021,3 20 41 0,0
17.06.2018 14:00:00 18,3 9,6 21,4 19,7 17,4 16 9 31 17 SW 1021,7 20 16 0,0
17.06.2018 13:00:00 17,5 9,4 20,5 19,2 17,4 13 7 26 14 WSW 1021,9 20 24 0,0
17.06.2018 12:00:00 16,9 8,6 17,6 18,8 17,4 11 6 26 14 WSW 1021,9 20 10 0,0
17.06.2018 11:00:00 16,8 8,2 16,6 18,5 17,4 12 7 23 12 WSW 1021,8 20 16 0,0
17.06.2018 10:00:00 16,3 9,5 17,4 18,4 17,4 11 6 23 13 WSW 1021,9 20 34 0,0
17.06.2018 09:00:00 15,1 9,7 15,2 18,4 17,4 11 6 20 11 WSW 1021,7 20 30 0,0
17.06.2018 08:00:00 14,0 9,8 13,4 18,5 17,4 5 3 11 6 WSW 1021,1 20 17 0,0
17.06.2018 07:00:00 13,3 10,7 12,7 18,7 17,4 4 2 10 5 SW 1020,7 20 0 0,0
17.06.2018 06:00:00 12,9 10,1 11,6 18,9 17,4 4 2 6 4 WSW 1020,6 20 0 0,0
17.06.2018 05:00:00 13,0 9,6 11,6 19,1 17,4 4 2 10 6 WNW 1020,3 20 0 0,0
17.06.2018 04:00:00 13,5 9,5 12,7 19,3 17,4 8 4 14 7 NW 1020,3 20 0 0,0
17.06.2018 03:00:00 14,1 10,5 13,5 19,5 17,4 4 2 16 8 NW 1020,2 20 0 0,0
17.06.2018 02:00:00 14,5 10,7 14,0 19,7 17,4 9 5 16 9 NW 1020,1 20 0 0,0
17.06.2018 01:00:00 14,6 11,0 14,4 20,0 17,4 6 4 16 9 NNW 1019,8 20 0 0,0
17.06.2018 00:00:00 15,1 11,5 14,7 20,2 17,3 9 5 16 9 NW 1019,7 20 0 0,0
16.06.2018 23:00:00 15,9 12,3 15,0 20,6 17,4 10 5 21 12 W 1019,3 20 0 0,0
16.06.2018 22:00:00 16,9 12,0 16,1 21,0 17,3 10 6 22 12 WSW 1018,7 20 16 0,0
16.06.2018 21:00:00 18,6 12,6 18,1 21,3 17,4 9 5 24 13 WSW 1018,4 20 10 0,0
16.06.2018 20:00:00 18,8 11,6 19,6 21,6 17,4 15 8 26 14 W 1018,2 20 12 0,0
16.06.2018 19:00:00 19,3 11,8 19,5 21,8 17,4 13 7 29 16 W 1018,0 20 2 0,0
16.06.2018 18:00:00 19,2 11,5 20,0 21,9 17,3 17 9 29 15 W 1018,1 20 0 0,0
16.06.2018 17:00:00 20,5 9,7 22,1 21,5 17,3 16 9 34 18 WSW 1017,5 20 49 0,0
16.06.2018 16:00:00 20,7 10,8 23,1 20,9 17,3 17 9 31 17 W 1017,7 20 42 0,0
16.06.2018 15:00:00 19,9 10,9 22,9 20,4 17,4 17 9 31 17 SW 1017,7 20 37 0,0
16.06.2018 14:00:00 19,4 11,2 22,2 19,9 17,3 13 7 25 14 WSW 1017,8 20 3 0,0
16.06.2018 13:00:00 20,1 10,8 21,5 19,2 17,3 11 6 30 16 SW 1017,9 20 47 0,0
16.06.2018 12:00:00 18,9 10,7 21,5 18,6 17,3 8 4 17 9 WSW 1018,4 20 48 0,0
16.06.2018 11:00:00 17,0 10,6 18,6 18,2 17,3 4 2 11 6 SSW 1018,4 20 10 0,0
16.06.2018 10:00:00 15,4 11,4 16,8 18,0 17,3 2 1 8 4 SSW 1018,6 20 0 0,0
16.06.2018 09:00:00 14,1 11,4 13,7 17,9 17,3 0 0 6 4 N 1018,4 20 7 0,0
16.06.2018 08:00:00 12,4 10,8 11,1 17,9 17,3 3 2 8 5 NNE 1018,1 16 8 0,0
16.06.2018 07:00:00 10,8 10,0 10,1 18,1 17,3 5 3 9 5 N 1017,8 12 0 0,0
16.06.2018 06:00:00 10,8 10,0 8,8 18,4 17,3 3 2 9 5 N 1017,9 15 0 0,0
16.06.2018 05:00:00 10,8 9,9 9,8 18,7 17,3 3 2 10 5 N 1017,8 15 0 0,0
16.06.2018 04:00:00 10,8 9,9 9,4 19,0 17,3 5 3 10 5 N 1018,1 13 0 0,0
16.06.2018 03:00:00 10,9 9,8 9,9 19,4 17,3 8 4 13 7 N 1018,4 17 0 0,0
16.06.2018 02:00:00 11,6 10,0 10,8 19,8 17,3 10 5 16 9 N 1018,6 19 0 0,0
16.06.2018 01:00:00 12,6 10,3 11,8 20,3 17,3 13 7 19 11 NNW 1018,7 20 0 0,0
16.06.2018 00:00:00 13,2 9,6 12,2 20,8 17,3 11 6 21 11 NNW 1018,6 20 0 0,0
15.06.2018 23:00:00 13,8 9,2 12,5 21,4 17,3 9 5 17 9 NNW 1018,5 20 0 0,0
15.06.2018 22:00:00 15,0 9,4 14,1 22,0 17,3 11 6 26 14 NNW 1018,1 20 31 0,0
15.06.2018 21:00:00 16,2 9,1 16,0 22,6 17,3 13 7 28 15 NW 1018,4 19 30 0,0
15.06.2018 20:00:00 18,3 10,4 20,0 23,1 17,3 16 9 27 14 NW 1017,9 20 50 0,0
15.06.2018 19:00:00 20,0 11,5 22,2 23,2 17,3 15 8 30 16 NW 1017,7 20 58 0,0
15.06.2018 18:00:00 20,9 12,3 21,6 23,2 17,3 15 8 24 13 NW 1017,8 20 37 0,0

tt = Température de l'air
td = dewpoint
tt 5cm = Température de l'air 5cm
tt -20cm = Température de l'air -20cm
tt -100cm = Température de l'air -100cm
ff = Vitesse du vent
fx = gusts
dd = Direction du vent
ppp = reduced air pressure
vv = visibility
sd = Ensoleillement
rr = Quantités de précipitations

stations d'obs. à proximité